www.pogodaiklimat.ru

Погода и климат >> Архив погоды >> Япония >> Китами Сачи


ПОГОДА в Китами Сачи

  • Прогноз погоды в Китами Сачи
  • Монитор погоды в Китами Сачи

АРХИВ ПОГОДЫ в Китами Сачи

Время (UTC), дата Ветер
(напр.,м/с)
 
Видим.   Явления Облачность Т
(С)
Тd
(С)
f
(%)
Тe
(С)
Тes
(С)
Комфортность P
(гПа)
Po
(гПа)
Тmin
(С)
Tmax
(С)
R
(мм)
R24
(мм)
S
(см)
06 19.08 В 4 20 км {дождь} н/о +16.6 +15.5 93 +16 +16 1015.6 1014.6 0.0
09 19.08 В 4 6000 м слаб. дождь н/о +16.7 +16.1 96 +16 +16 1015.6 1014.6
10 19.08 В 4 20 км в посл. час дождь н/о +16.7 +15.9 95 +16 +16 1015.9 1014.9
11 19.08 В 4 9000 м слаб. дождь н/о +16.8 +16.3 97 +16 +16 1016.0 1015.0
12 19.08 В 3 11 км в посл. час дождь н/о +16.6 +16.3 98 +16 +16 1015.9 1014.9 +17.3 0.0
13 19.08 В 3 15 км н/о +16.8 +15.8 94 +17 +17 1015.7 1014.7
14 19.08 В 2 12 км н/о +16.5 +15.7 95 +17 +17 1015.4 1014.4
15 19.08 В 2 12 км н/о +16.5 +15.9 96 +17 +17 1015.2 1014.2
16 19.08 СЗ 1 10 км н/о +16.4 +15.8 96 +17 +17 1014.7 1013.7
17 19.08 ЮЗ 1 8000 м дымка н/о +16.4 +15.9 97 +18 +18 1014.8 1013.8
18 19.08 Ю 1 8000 м дымка н/о +16.5 +16.0 97 +18 +18 1014.5 1013.5
19 19.08 В 1 6000 м слаб. дождь н/о +16.6 +16.1 97 +17 +17 1014.3 1013.3
20 19.08 СВ 1 5000 м в посл. час дождь н/о +16.5 +16.0 97 +17 +17 1014.3 1013.3
21 19.08 СВ 1 5000 м дымка {дождь} н/о +16.6 +16.1 97 +17 +17 1014.1 1013.1
22 19.08 ЮВ 1 6000 м дымка н/о +16.9 +16.3 96 +18 +18 1013.9 1012.9
23 19.08 ЮВ 1 9000 м дымка н/о +17.3 +16.7 96 +18 +18 1013.8 1012.8
00 20.08 ЮВ 1 4200 м слаб. дождь н/о +17.2 +16.9 98 +18 +18 1013.3 1012.3 +16.4 1
01 20.08 В 2 3800 м слаб. дождь н/о +17.2 +17.1 99 +17 +17 1013.3 1012.3
02 20.08 В 2 5000 м слаб. дождь н/о +17.3 +17.2 99 +18 +18 1012.9 1011.9
03 20.08 В 4 1900 м дождь н/о +16.9 +16.8 99 +16 +16 1012.9 1011.9
04 20.08 ЮВ 3 3100 м дождь н/о +17.0 +16.9 99 +17 +17 1012.9 1011.9
05 20.08 ЮВ 3 5000 м дождь н/о +17.1 +17.0 99 +17 +17 1012.5 1011.5
06 20.08 В 3 5000 м слаб. дождь н/о +17.2 +17.1 99 +17 +17 1012.2 1011.2 25
07 20.08 В 2 5000 м слаб. дождь н/о +16.8 +16.7 99 +17 +17 1012.1 1011.1
08 20.08 В 3 4000 м слаб. дождь н/о +16.2 +16.1 99 +16 +16 1012.0 1011.0
09 20.08 В 3 6000 м слаб. дождь н/о +16.2 +16.1 99 +16 +16 1011.8 1010.8
10 20.08 С 2 6000 м слаб. дождь н/о +16.0 +15.9 99 +16 +16 1012.3 1011.3
11 20.08 СВ 3 2300 м слаб. дождь н/о +15.6 +15.5 99 +15 +15 1012.6 1011.6
12 20.08 СВ 3 9000 м в посл. час дождь н/о +15.6 +15.5 99 +15 +15 1012.8 1011.8 +17.4 30
13 20.08 СВ 4 2300 м слаб. дождь н/о +15.5 +15.4 99 +14 +14 1012.9 1011.9
14 20.08 В 4 2000 м слаб. дождь н/о +15.3 +15.3 100 +14 +14 1013.2 1012.2
15 20.08 СВ 4 5000 м слаб. дождь н/о +15.3 +15.2 99 +14 +14 1013.3 1012.3
16 20.08 В 4 2400 м слаб. дождь н/о +15.3 +15.3 100 +14 +14 1013.2 1012.2
17 20.08 В 3 1400 м слаб. дождь н/о +15.5 +15.5 100 +15 +15 1013.3 1012.3
18 20.08 СВ 4 1400 м слаб. дождь н/о +15.5 +15.5 100 +15 +15 1013.3 1012.3 6
20 20.08 СВ 5 5000 м слаб. дождь н/о +15.1 +15.1 100 +14 +14 1014.3 1013.3
22 20.08 В 6 17 км в посл. час дождь н/о +14.9 +14.6 98 +13 +13 1014.9 1013.9
23 20.08 В 4 18 км слаб. дождь н/о +15.1 +14.6 97 +14 +14 1015.2 1014.2
00 21.08 В 3 13 км в посл. час дождь н/о +15.1 +14.6 97 +14 +14 1015.4 1014.4 +14.8 7
01 21.08 В 4 9000 м слаб. дождь н/о +15.2 +14.9 98 +14 +14 1015.8 1014.8
02 21.08 В 5 1500 м слаб. дождь н/о +15.2 +15.1 99 +14 +14 1015.4 1014.4
03 21.08 В 5 1900 м слаб. дождь н/о +15.2 +15.2 100 +14 +14 1015.3 1014.3
05 21.08 В 6 10 км в посл. час дождь н/о +15.3 +14.7 96 +14 +14 1014.9 1013.9
06 21.08 В 6 8000 м дымка {дождь} н/о +15.1 +14.6 97 +13 +13 1015.1 1014.1 0.5
07 21.08 В 7 10 км н/о +15.3 +14.7 96 +13 +13 1014.7 1013.7
08 21.08 В 7 10 км слаб. дождь н/о +15.4 +14.9 97 +14 +14 1014.7 1013.7
09 21.08 В 7 3100 м слаб. дождь н/о +15.2 +14.9 98 +13 +13 1015.0 1014.0
10 21.08 В 8 7000 м слаб. дождь н/о +15.1 +14.8 98 +13 +13 1014.7 1013.7
11 21.08 В 7 3100 м слаб. дождь н/о +15.2 +15.1 99 +13 +13 1015.1 1014.1
12 21.08 В 6 3700 м слаб. дождь н/о +15.3 +15.2 99 +14 +14 1015.5 1014.5 +15.6 0.0
13 21.08 В 6 2000 м слаб. дождь н/о +15.3 +15.2 99 +14 +14 1015.2 1014.2
15 21.08 В 7 4100 м слаб. дождь н/о +15.1 +15.0 99 +13 +13 1014.9 1013.9
16 21.08 В 6 3100 м слаб. дождь н/о +15.4 +15.4 100 +14 +14 1014.4 1013.4
17 21.08 В 6 4600 м слаб. дождь н/о +15.6 +15.6 100 +14 +14 1014.3 1013.3
18 21.08 В 6 3800 м дождь н/о +15.5 +15.4 99 +14 +14 1014.0 1013.0 4
19 21.08 В 5 8000 м слаб. дождь н/о +15.6 +15.3 98 +14 +14 1013.9 1012.9
20 21.08 В 6 7000 м слаб. дождь н/о +15.8 +15.5 98 +14 +14 1014.4 1013.4
22 21.08 В 6 8000 м слаб. дождь н/о +15.9 +15.4 97 +15 +15 1014.4 1013.4
23 21.08 В 5 11 км слаб. дождь н/о +16.0 +15.5 97 +15 +15 1014.7 1013.7
00 22.08 В 6 12 км в посл. час дождь н/о +16.1 +15.3 95 +15 +15 1014.7 1013.7 +15.1 7
01 22.08 В 6 11 км н/о +16.4 +15.3 93 +15 +15 1014.6 1013.6
02 22.08 В 5 11 км слаб. дождь н/о +16.8 +15.7 93 +16 +16 1014.4 1013.4
04 22.08 В 5 10 км н/о +17.2 +15.6 90 +16 +16 1014.2 1013.2
05 22.08 В 5 11 км н/о +17.1 +15.5 90 +16 +16 1013.8 1012.8
06 22.08 В 4 9000 м слаб. дождь н/о +17.3 +15.5 89 +17 +17 1013.7 1012.7 0.0
07 22.08 В 4 8000 м дымка н/о +16.9 +15.3 90 +16 +16 1013.6 1012.6
08 22.08 В 4 9000 м дымка н/о +16.6 +15.1 91 +16 +16 1013.8 1012.8
09 22.08 В 5 8000 м в посл. час дождь н/о +16.3 +15.2 93 +15 +15 1013.7 1012.7
11 22.08 В 6 8000 м дымка н/о +16.2 +15.1 93 +15 +15 1013.7 1012.7
12 22.08 В 6 8000 м дымка {дождь} н/о +16.3 +15.2 93 +15 +15 1013.3 1012.3 +17.6 0.0
13 22.08 В 5 6000 м дымка н/о +16.5 +15.4 93 +16 +16 1013.0 1012.0
14 22.08 В 5 6000 м дымка н/о +16.3 +15.2 93 +15 +15 1012.6 1011.6
15 22.08 В 6 7000 м дымка н/о +17.2 +15.7 91 +16 +16 1012.4 1011.4
16 22.08 В 6 7000 м дымка н/о +16.9 +15.3 90 +16 +16 1011.9 1010.9
17 22.08 В 6 7000 м дымка н/о +16.5 +14.5 88 +15 +15 1011.9 1010.9
18 22.08 В 6 7000 м дымка н/о +16.5 +14.7 89 +15 +15 1011.8 1010.8
19 22.08 В 7 6000 м дымка н/о +16.3 +14.5 89 +15 +15 1010.8 1009.8
20 22.08 В 7 6000 м дымка н/о +16.5 +14.7 89 +15 +15 1010.6 1009.6
21 22.08 В 6 11 км в посл. час дождь н/о +17.1 +13.8 81 +16 +16 1010.1 1009.1
22 22.08 ЮВ 6 11 км н/о +17.2 +14.1 82 +16 +16 1010.3 1009.3
23 22.08 ЮВ 7 12 км н/о +17.2 +14.1 82 +16 +16 1010.4 1009.4
00 23.08 ЮВ 8 6000 м слаб. дождь н/о +16.2 +14.6 90 +15 +15 1010.3 1009.3 +16.2 0.0
01 23.08 В 9 5000 м слаб. дождь н/о +16.2 +15.1 93 +14 +14 1010.2 1009.2
02 23.08 ЮВ 7 7000 м слаб. дождь н/о +16.2 +14.6 90 +15 +15 1009.6 1008.6
03 23.08 ЮВ 9 2600 м слаб. дождь н/о +15.7 +14.8 94 +14 +14 1009.4 1008.4
04 23.08 ЮВ 9 4400 м слаб. дождь н/о +15.3 +14.2 93 +13 +13 1009.4 1008.4
05 23.08 В 9 6000 м слаб. дождь н/о +15.7 +14.2 91 +14 +14 1008.9 1007.9
06 23.08 В 8 3400 м дождь н/о +15.2 +14.4 95 +13 +13 1008.8 1007.8 8
07 23.08 В 9 4800 м дождь н/о +14.7 +14.1 96 +12 +12 1008.5 1007.5
08 23.08 В 9 4300 м слаб. дождь н/о +14.7 +13.9 95 +12 +12 1007.9 1006.9
09 23.08 В 9 6000 м слаб. дождь н/о +14.7 +14.1 96 +12 +12 1007.4 1006.4
10 23.08 В 9 2200 м слаб. дождь н/о +15.1 +14.6 97 +13 +13 1007.0 1006.0
11 23.08 В 9 3900 м слаб. дождь н/о +15.5 +15.2 98 +13 +13 1006.7 1005.7
12 23.08 В 8 2900 м слаб. дождь н/о +15.5 +15.2 98 +13 +13 1006.2 1005.2 +16.5 17
13 23.08 В 9 6000 м слаб. дождь н/о +15.9 +15.6 98 +14 +14 1005.4 1004.4
14 23.08 В 6 2600 м слаб. дождь н/о +16.0 +15.9 99 +15 +15 1004.9 1003.9
15 23.08 ЮВ 3 2000 м слаб. дождь н/о +16.4 +16.3 99 +16 +16 1004.2 1003.2
16 23.08 В 6 2300 м слаб. дождь н/о +15.9 +15.8 99 +14 +14 1003.7 1002.7
17 23.08 ЮВ 6 2200 м слаб. дождь н/о +15.9 +15.8 99 +15 +15 1003.6 1002.6
18 23.08 В 6 3100 м слаб. дождь н/о +15.9 +15.8 99 +15 +15 1003.4 1002.4 2
19 23.08 В 4 2400 м слаб. дождь н/о +15.9 +15.8 99 +15 +15 1003.0 1002.0
20 23.08 В 2 2500 м слаб. дождь н/о +16.2 +16.1 99 +16 +16 1003.0 1002.0
21 23.08 В 5 2900 м слаб. дождь н/о +16.6 +16.5 99 +16 +16 1002.9 1001.9
22 23.08 ЮВ 2 3300 м слаб. дождь н/о +16.7 +16.6 99 +17 +17 1002.9 1001.9
23 23.08 В 3 2000 м слаб. дождь н/о +16.6 +16.5 99 +16 +16 1003.0 1002.0
00 24.08 СВ 2 3000 м в посл. час дождь н/о +17.0 +16.7 98 +17 +17 1003.0 1002.0 +15.5 3
02 24.08 СВ 3 4800 м в посл. час дождь н/о +16.8 +15.3 91 +17 +17 1003.0 1002.0
03 24.08 СВ 3 5000 м слаб. дождь н/о +16.7 +15.2 91 +16 +16 1003.1 1002.1
04 24.08 С 4 5000 м в посл. час дождь н/о +16.8 +15.5 92 +16 +16 1003.1 1002.1
05 24.08 С 5 5000 м слаб. дождь н/о +16.6 +15.1 91 +16 +16 1003.0 1002.0
06 24.08 С 5 4100 м в посл. час дождь н/о +16.0 +15.0 94 +15 +15 1003.2 1002.2 0.0
07 24.08 С 6 6000 м в посл. час дождь н/о +16.2 +15.1 93 +15 +15 1003.4 1002.4
08 24.08 С 5 6000 м слаб. дождь н/о +16.0 +15.4 96 +15 +15 1004.1 1003.1
09 24.08 С 5 6000 м слаб. дождь н/о +15.5 +15.0 97 +14 +14 1004.6 1003.6
10 24.08 С 5 2000 м слаб. дождь н/о +15.4 +15.1 98 +14 +14 1005.3 1004.3
11 24.08 С 5 2900 м слаб. дождь н/о +15.3 +15.0 98 +14 +14 1005.9 1004.9
12 24.08 СЗ 4 2500 м слаб. дождь н/о +14.9 +14.6 98 +14 +14 1006.1 1005.1 +17.4 2
13 24.08 З 2 9000 м слаб. дождь н/о +15.0 +14.2 95 +15 +15 1006.0 1005.0
14 24.08 СЗ 2 19 км слаб. дождь н/о +14.9 +14.1 95 +14 +14 1006.1 1005.1
15 24.08 З 3 20 км слаб. дождь н/о +14.8 +13.5 92 +14 +14 1006.3 1005.3
16 24.08 З 1 20 км в посл. час дождь н/о +14.9 +14.1 95 +16 +16 1006.4 1005.4
17 24.08 ЮЗ 1 20 км н/о +14.7 +13.9 95 +15 +15 1006.6 1005.6
18 24.08 СЗ 2 6000 м слаб. дождь н/о +14.4 +13.8 96 +14 +14 1006.9 1005.9 0.5
19 24.08 С 2 20 км слаб. дождь н/о +14.2 +13.6 96 +14 +14 1007.3 1006.3
20 24.08 ЮЗ 2 12 км слаб. дождь н/о +13.8 +13.2 96 +13 +13 1007.7 1006.7
21 24.08 СЗ 1 17 км слаб. дождь н/о +14.4 +13.5 94 +15 +15 1008.0 1007.0
22 24.08 СЗ 3 4100 м слаб. дождь н/о +14.5 +13.7 95 +13 +13 1008.3 1007.3
23 24.08 С 5 3500 м слаб. дождь н/о +14.5 +13.9 96 +13 +13 1008.5 1007.5
00 25.08 С 4 20 км слаб. дождь н/о +15.9 +13.9 88 +15 +15 1008.8 1007.8 +13.7 2
01 25.08 С 5 2800 м слаб. дождь н/о +15.4 +14.5 94 +14 +14 1008.9 1007.9
02 25.08 С 7 20 км слаб. дождь н/о +16.0 +13.9 87 +15 +15 1008.7 1007.7
03 25.08 С 6 20 км в посл. час дождь н/о +16.1 +13.9 87 +15 +15 1008.8 1007.8
04 25.08 С 6 20 км н/о +15.6 +13.6 88 +14 +14 1009.0 1008.0
05 25.08 С 6 10 км слаб. дождь н/о +15.3 +13.3 88 +14 +14 1009.5 1008.5
06 25.08 С 6 13 км слаб. дождь н/о +15.2 +13.2 88 +14 +14 1009.8 1008.8 0.5
07 25.08 С 5 19 км в посл. час дождь н/о +15.2 +13.1 87 +14 +14 1010.4 1009.4
08 25.08 С 4 20 км н/о +15.0 +12.9 87 +14 +14 1010.7 1009.7
09 25.08 СВ 3 20 км в посл. час дождь н/о +14.8 +13.2 90 +14 +14 1010.9 1009.9
10 25.08 В 2 20 км н/о +14.3 +12.3 88 +14 +14 1011.1 1010.1
11 25.08 В 2 20 км н/о +14.5 +12.2 86 +14 +14 1011.7 1010.7
12 25.08 ЮЗ 2 20 км слаб. дождь н/о +14.4 +12.6 89 +14 +14 1012.0 1011.0 +16.3 0.5
13 25.08 ЮЗ 1 20 км в посл. час дождь н/о +14.1 +12.7 91 +14 +14 1011.9 1010.9
14 25.08 ЮЗ 1 20 км н/о +14.2 +12.8 91 +14 +14 1011.8 1010.8
15 25.08 ЮЗ 1 20 км {дождь} н/о +13.9 +13.0 94 +14 +14 1011.5 1010.5
17 25.08 ЮЗ 3 20 км н/о +13.3 +12.4 94 +12 +12 1011.6 1010.6
18 25.08 ЮЗ 2 20 км слаб. дождь н/о +13.3 +12.2 93 +12 +12 1011.6 1010.6 0.0
19 25.08 З 2 20 км в посл. час дождь н/о +13.4 +12.3 93 +13 +13 1012.0 1011.0
20 25.08 З 2 20 км слаб. дождь н/о +13.6 +12.3 92 +13 +13 1012.5 1011.5

 

Местоположение метеостанции Китами Сачи (Япония): широта 44.93 долгота 142.58 высота над уровнем моря 8 м.

В архиве по умолчанию представлена погода в Китами Сачи за последнюю неделю. Архивные данные за месяц целиком и за предыдущие месяцы, начиная с января 2011 года, Вы можете получить, выбрав интересующий диапазон дат из раскрывающегося списка и нажав кнопку "Ввод!".


*Определитесь, кто Вы:
робот инопланетянин человек

Внимание! Время в таблицах - всемирное. Для получения местного времени необходимо прибавить поправку, которая равна 9 ч.

Смотрите также архив погоды в соседних городах и на ближайших метеорологических станциях:

Погода в Омурайсу (Япония) (49 км)
Погода в Момбецу (Япония) (89 км)
Погода в Вакканае (Япония) (89 км)
Погода в Хаборо (Япония) (93 км)
Погода на Мысе Крильон (Сахалинская область, Россия) (117 км)
Погода в Асахикаве (Япония) (130 км)
Погода в Румои (Япония) (133 км)
Погода в Абасири (Япония) (169 км)
Погода в Новиково (Сахалинская область, Россия) (171 км)
Погода на Острове Монерон (Сахалинская область, Россия) (182 км)

Пояснения к столбцам:

Ветер - указаны скорость ветра в м/с - средняя за 10 мин, порывы в срок и между сроками (в фигурных скобках) и направление, откуда дует ветер: С - северный, СВ - северо-восточный, В - восточный, ЮВ - юго-восточный, Ю - южный, ЮЗ - юго-западный, З - западный, СЗ - северо-западный.
Видимость - горизонтальная дальность видимости в метрах или километрах. При видимости от 1 до 10 км при отсутствии осадков обычно наблюдается дымка, при ухудшении видимости до 1 км и менее - туман. В сухую погоду видимость может ухудшаться дымом, пылью или мглою.
Явления - указаны атмосферные явления, наблюдавшиеся в срок или в последний час перед сроком; фигурными скобками обозначены явления, наблюдавшиеся между сроками (за 1-3 часа до срока); квадратными скобками обозначены град или гололедные отложения с указанием их диаметра в мм.
Облачность - указаны через наклонную черту общая и нижняя облачность в баллах и высота нижней границы облаков в метрах; квадратными скобками обозначены формы облаков: Ci - перистые, Cs - перисто-слоистые, Cc - перисто-кучевые, Ac - высококучевые, As - высокослоистые, Sc - слоисто-кучевые, Ns - слоисто-дождевые, Cu - кучевые, Cb - кучево-дождевые. Подробнее классификацию облаков см. в Атласе облаков (PDF).
T - Температура воздуха - температура, измеренная на высоте 2 м над землей.
Td - Температура точки росы - температура, при понижении до которой содержащийся в воздухе водяной пар достигнет насыщения.
f - Относительная влажность воздуха - влажноcть воздуха, измеренная на высоте 2 м над землей.
Te - Эффективная температура - температура, которую ощущает одетый по сезону человек в тени. Характеристика душности погоды. При расчете учитывается влияние влажности воздуха и скорости ветра на теплоощущения человека.
Tes - Эффективная температура на солнце - температура, которую ощущает человек, с поправкой на солнечный нагрев. Характеристика знойности погоды. Зависит от высоты солнца над горизонтом, облачности и скорости ветра. Ночью, в пасмурную погоду, а также при ветре 12 м/с и более поправка равна нулю.
P - Атмосферное давление - приведенное к уровню моря атмосферное давление.
Po - Атмосферное давление - измеренное на уровне метеостанции атмосферное давление.
Tmin - Минимальная температура - минимум температуры воздуха на высоте 2 м над землей.
Tmax - Максимальная температура - максимум температуры воздуха на высоте 2 м над землей.
R - Количество осадков - Количество выпавших осадков за период времени, мм. При наведении курсора мыши на число - период времени, за который выпало указанное количество осадков.
R24 - Количество осадков - Количество выпавших осадков за 24 часа, мм.
S - Снежный покров - Высота снежного покрова, см. При наведении курсора мыши на число - состояние снежного покрова и степень покрытия местности в баллах.